Location: Cheyres
(46.8153°N, 6.7877°E)
Time: 10:20:41
(UTC+00:00)

Gbstr 26 Del rocket - Pass Details

Date: 20 September 2021
Orbit: 492 x 1263 km, 51.8° (Epoch: 18 October)

Event Time Altitude Azimuth Distance (km) Brightness Sun altitude
Exits shadow 23:43:58 25° 63° (ENE) 2,235 6.0 -42.3°
Drops below altitude 10° 23:46:50 10° 68° (ENE) 3,126 6.9 -42.3°
Sets 23:49:33 0° 70° (ENE) 4,018 7.5 -42.2°
